This demonstration page uses our WeatherBlox Daily Observations layout. Learn more.

Hourly Observations for December 22, 2017

Temp ( °F °C ) Dew Point ( °F °C ) Humidity (%) Winds ( mph kmh ) Pressure ( in mb ) Visibility ( mi km ) Precip ( " mm )
12:11 am 00:11 Cloudy 22 -5.6 19 -7.2 89 89 NNW 13 20 30.21 1023 10 16.0934 0 0
12:43 am 00:43 Cloudy 23 -5 18 -7.8 81 81 N 14 22 30.21 1023 10 16.0934 0 0
12:54 am 00:54 Cloudy 23 -5 19 -7.2 85 85 N 13 20 30.15 1021 10 16.0934 0 0
1:15 am 01:15 Cloudy 23 -5 18 -7.8 81 81 N 17 28 30.21 1023 10 16.0934 0 0
1:25 am 01:25 Cloudy 23 -5 19 -7.2 85 85 N 14 22 30.21 1023 10 16.0934 0 0
1:54 am 01:54 Cloudy 23 -5 18 -7.8 81 81 N 14 22 30.16 1021 10 16.0934 0 0
2:34 am 02:34 Cloudy 23 -5 19 -7.2 85 85 N 13 20 30.21 1023 10 16.0934 0 0
2:54 am 02:54 Cloudy 22 -5.6 18 -7.8 85 85 N 14 22 30.18 1022 10 16.0934 0 0
3:22 am 03:22 Cloudy 22 -5.6 18 -7.8 85 85 N 13 20 30.21 1023 10 16.0934 0 0
3:42 am 03:42 Cloudy 22 -5.6 18 -7.8 85 85 N 16 26 30.21 1023 10 16.0934 0 0
3:54 am 03:54 Cloudy 22 -5.6 18 -7.8 85 85 N 16 26 30.16 1022 10 16.0934 0 0
4:07 am 04:07 Cloudy 22 -5.6 17 -8.3 82 82 N 15 24 30.21 1023 10 16.0934 0 0
4:41 am 04:41 Cloudy 21 -6.1 17 -8.3 85 85 N 13 20 30.21 1023 10 16.0934 0 0
4:50 am 04:50 Cloudy 21 -6 18 -8 86 86 N 10 17 30.21 1023 10 16.0934 0 0
4:54 am 04:54 Cloudy 21 -6.1 17 -8.3 85 85 N 13 20 30.18 1022 10 16.0934 0 0
5:54 am 05:54 Cloudy 21 -6.1 16 -8.9 81 81 N 10 17 30.19 1023 10 16.0934 0 0
6:54 am 06:54 Cloudy 21 -6.1 16 -8.9 81 81 NNW 13 20 30.21 1023 10 16.0934 0 0
7:54 am 07:54 Cloudy 21 -6.1 16 -8.9 81 81 NNW 12 19 30.22 1023 10 16.0934 0 0
8:54 am 08:54 Mostly Sunny 22 -5.6 16 -8.9 78 78 NNW 8 13 30.22 1023 10 16.0934 0 0
9:54 am 09:54 Sunny 24 -4.4 17 -8.3 75 75 NNW 6 9 30.24 1024 10 16.0934 0 0
10:54 am 10:54 Partly Cloudy 26 -3.3 18 -7.8 71 71 NNW 7 11 30.25 1024 10 16.0934 0 0
11:54 am 11:54 Partly Cloudy 28 -2.2 19 -7.2 69 69 NNW 6 9 30.23 1024 10 16.0934 0 0
12:54 pm 12:54 Sunny 30 -1.1 20 -6.7 66 66 NNW 8 13 30.19 1023 10 16.0934 0 0
1:54 pm 13:54 Sunny 32 0 21 -6.1 64 64 NNW 7 11 30.17 1022 10 16.0934 0 0
2:54 pm 14:54 Sunny 33 0.6 20 -6.7 58 58 N 9 15 30.16 1021 10 16.0934 0 0
3:54 pm 15:54 Sunny 33 0.6 20 -6.7 58 58 NNW 6 9 30.16 1022 10 16.0934 0 0
4:54 pm 16:54 Sunny 30 -1.1 20 -6.7 66 66 N 6 9 30.19 1022 10 16.0934 0 0
5:54 pm 17:54 Clear 22 -5.6 18 -7.8 85 85 NNE 7 11 30.21 1023 10 16.0934 0 0
6:54 pm 18:54 Clear 22 -5.6 18 -7.8 85 85 N 6 9 30.22 1023 10 16.0934 0 0
7:54 pm 19:54 Clear 22 -5.6 17 -8.3 82 82 Calm 30.23 1024 10 16.0934 0 0
8:54 pm 20:54 Mostly Clear 21 -6.1 17 -8.3 85 85 NNW 3 6 30.25 1024 10 16.0934 0 0
9:54 pm 21:54 Clear 20 -6.7 16 -8.9 85 85 NNW 7 11 30.28 1026 10 16.0934 0 0
10:32 pm 22:32 Mostly Cloudy 21 -6.1 16 -8.9 81 81 N 13 20 30.36 1028 10 16.0934 0 0
10:46 pm 22:46 Partly Cloudy 21 -6.1 15 -9.4 78 78 N 15 24 30.36 1028 10 16.0934 0 0
10:54 pm 22:54 Mostly Clear 21 -6.1 15 -9.4 78 78 N 13 20 30.29 1026 10 16.0934 0 0
11:54 pm 23:54 Clear 19 -7.2 14 -10 81 81 N 9 15 30.28 1025 10 16.0934 0 0

Powered by AerisWeather